Location: Boiro
(42.6475°N, 8.8834°W)
Time: 03:48:47
(UTC+02:00)

M-CUBED/EXP-1 PRIME - Visible Passes

Search period start: 18 August 2022 00:00
Search period end: 28 August 2022 00:00
Orbit: 422 x 631 km, 101.7° (Epoch: 17 August)

Date Brightness Start Highest point End Pass type
(mag) Time Alt. Az. Time Alt. Az. Time Alt. Az.
18 Aug ? 04:05:56 10° E 04:08:03 13° NE 04:10:12 10° NNE visible
18 Aug ? 05:39:42 39° S 05:41:15 75° WSW 05:45:39 10° NNW visible
19 Aug ? 05:27:51 34° SSE 05:29:43 78° ENE 05:34:08 10° NNW visible
19 Aug ? 07:03:04 10° WSW 07:03:59 11° W 07:04:57 10° W visible
20 Aug ? 05:16:00 27° SE 05:18:12 56° ENE 05:22:31 10° N visible
20 Aug ? 06:51:12 14° WSW 06:52:18 15° W 06:54:51 10° WNW visible
21 Aug ? 05:04:07 20° SE 05:06:43 40° ENE 05:10:50 10° N visible
21 Aug ? 06:39:19 19° WSW 06:40:35 21° W 06:43:57 10° NW visible
22 Aug ? 04:52:13 14° ESE 04:55:13 30° ENE 04:59:02 10° N visible
22 Aug ? 06:27:25 23° SW 06:28:55 29° W 06:32:45 10° NW visible
23 Aug ? 04:40:20 10° ESE 04:43:44 22° ENE 04:47:07 10° N visible
23 Aug ? 06:15:29 27° SSW 06:17:15 40° WSW 06:21:24 10° NNW visible
24 Aug ? 04:29:26 10° E 04:32:15 17° ENE 04:35:03 10° NNE visible
24 Aug ? 06:03:32 29° S 06:05:36 56° WSW 06:09:56 10° NNW visible
25 Aug ? 04:18:53 10° E 04:20:47 13° NE 04:22:41 10° NNE visible
25 Aug ? 05:51:33 26° SSE 05:53:58 80° WSW 05:58:21 10° NNW visible
26 Aug ? 05:39:32 22° SSE 05:42:20 73° ENE 05:46:41 10° NNW visible
26 Aug ? 07:15:04 10° WSW 07:16:31 11° W 07:17:59 10° WNW visible
27 Aug ? 05:27:29 17° SE 05:30:43 52° ENE 05:34:56 10° N visible
27 Aug ? 07:02:41 12° SW 07:04:43 16° W 07:07:28 10° WNW visible
